Plymouth, NH

5:05 PM EST on December 14, 2017 (GMT -0500)
Plymouth

Weather History for K1P1 - May, 2012

Change the Weather History Date:

Tuesday, May 1, 2012

  Actual Average (KLCI) Record (KLCI)
Temperature  
Mean Temperature 44 °F -  
Max Temperature 46 °F 63 °F 84 °F (2001)
Min Temperature 41 °F 40 °F 26 °F (2008)
Degree Days  
Heating Degree Days 22    
Moisture  
Dew Point 41 °F    
Average Humidity 91    
Maximum Humidity 98    
Minimum Humidity 71    
Precipitation  
Precipitation 0.59 in - - ()
Sea Level Pressure  
Sea Level Pressure 30.14 in    
Wind  
Wind Speed 3 mph (East)    
Max Wind Speed 10 mph    
Max Gust Speed -    
Visibility 8 miles    
Events Rain    
Averages and records for this station are not official NWS values.
T = Trace of Precipitation, MM = Missing Value Source: NWS Daily Summary

Daily Weather History Graph

Daily Weather History Graph

Search for Another Location

Airport or City:

Trip Planner

Search our weather history database for the weather conditions in past years. The results will help you decide how hot, cold, wet, or windy it might be!

Date:

Astronomy

May. 01, 2012 Rise Set
Actual Time 5:38 AM EDT 7:50 PM EDT
Civil Twilight 5:06 AM EDT 8:22 PM EDT
Nautical Twilight 4:27 AM EDT 9:01 PM EDT
Astronomical Twilight 3:44 AM EDT 9:44 PM EDT
Moon 2:41 PM EDT (5/1) 2:44 AM EDT (5/1)
Length of Visible Light 15h 15m
Length of Day
14h 11m
Waxing Gibbous, 73% of the Moon is Illuminated
May 1
Waxing Gibbous
May 5
Full
May 12
Last Quarter
May 20
New
May 28
First Quarter

Hourly Weather History & Observations

Time (EDT) Temp. Windchill Dew Point Humidity Pressure Visibility Wind Dir Wind Speed Gust Speed Precip Events Conditions
12:15 AM 46.2 °F - 37.6 °F 72% 30.15 in 10.0 mi Calm Calm - N/A   Mostly Cloudy
12:35 AM 46.2 °F - 38.8 °F 75% 30.16 in 10.0 mi Calm Calm - N/A   Overcast
12:55 AM 45.5 °F - 37.8 °F 74% 30.17 in 10.0 mi Calm Calm - N/A   Overcast
1:35 AM 45.5 °F - 37.6 °F 74% 30.16 in 10.0 mi Calm Calm - N/A   Overcast
1:55 AM 45.7 °F - 37.6 °F 73% 30.16 in 10.0 mi Calm Calm - N/A   Overcast
2:15 AM 45.5 °F - 37.6 °F 74% 30.16 in 10.0 mi Calm Calm - N/A   Overcast
2:35 AM 45.5 °F - 36.7 °F 71% 30.15 in 10.0 mi Calm Calm - N/A   Light Drizzle
2:55 AM 45.0 °F - 38.8 °F 79% 30.14 in 10.0 mi Calm Calm - N/A Rain Light Rain
3:15 AM 44.8 °F - 38.1 °F 77% 30.15 in 10.0 mi Calm Calm - N/A   Overcast
3:35 AM 44.8 °F - 38.8 °F 80% 30.15 in 10.0 mi Calm Calm - N/A   Light Drizzle
3:55 AM 44.2 °F - 39.6 °F 84% 30.14 in 10.0 mi Calm Calm - N/A   Light Drizzle
4:15 AM 43.9 °F - 40.3 °F 87% 30.14 in 10.0 mi Calm Calm - N/A Rain Light Rain
4:35 AM 43.3 °F - 40.8 °F 91% 30.14 in 10.0 mi Calm Calm - N/A Rain Light Rain
4:55 AM 43.2 °F - 41.9 °F 95% 30.12 in 10.0 mi Calm Calm - N/A Rain Light Rain
5:15 AM 43.7 °F - 42.4 °F 95% 30.13 in 10.0 mi Calm Calm - 0.01 in Rain Rain
5:35 AM 43.3 °F 41.7 °F 42.8 °F 98% 30.14 in 7.0 mi ESE 3.5 mph - 0.02 in Rain Light Rain
5:55 AM 43.7 °F 40.3 °F 42.1 °F 94% 30.14 in 7.0 mi East 5.8 mph - 0.04 in Rain Rain
6:15 AM 43.3 °F 40.7 °F 41.9 °F 95% 30.14 in 7.0 mi ENE 4.6 mph - 0.02 in Rain Rain
6:35 AM 43.2 °F 39.7 °F 41.9 °F 95% 30.14 in 7.0 mi East 5.8 mph - 0.05 in Rain Rain
6:55 AM 43.0 °F 38.8 °F 41.2 °F 93% 30.14 in 10.0 mi East 6.9 mph - 0.06 in Rain Rain
7:15 AM 43.0 °F 37.7 °F 41.0 °F 93% 30.13 in 10.0 mi East 9.2 mph - N/A   Overcast
7:35 AM 42.8 °F 39.3 °F 40.5 °F 91% 30.13 in 10.0 mi East 5.8 mph - N/A   Light Drizzle
7:55 AM 42.8 °F 39.3 °F 41.4 °F 95% 30.13 in 7.0 mi East 5.8 mph - 0.01 in Rain Light Rain
8:15 AM 42.4 °F 38.1 °F 40.3 °F 92% 30.14 in 7.0 mi East 6.9 mph - 0.02 in Rain Rain
8:35 AM 42.3 °F 38.6 °F 40.8 °F 95% 30.13 in 5.0 mi East 5.8 mph - 0.05 in Rain Rain
8:55 AM 42.3 °F 39.4 °F 41.2 °F 96% 30.13 in 5.0 mi East 4.6 mph - 0.08 in Rain Rain
9:15 AM 42.3 °F 40.5 °F 41.2 °F 96% 30.14 in 3.0 mi East 3.5 mph - 0.04 in Rain Light Rain
9:35 AM 42.3 °F 37.9 °F 41.0 °F 95% 30.14 in 5.0 mi East 6.9 mph - 0.09 in Rain Rain
9:55 AM 42.1 °F 37.1 °F 40.6 °F 95% 30.14 in 5.0 mi East 8.1 mph - 0.14 in Rain Rain
10:55 AM 41.7 °F 36.7 °F 40.1 °F 94% 30.15 in 7.0 mi ENE 8.1 mph - 0.10 in Rain Rain
11:15 AM 41.2 °F 36.6 °F 39.9 °F 95% 30.14 in 4.0 mi East 6.9 mph - 0.03 in Rain Rain
11:35 AM 41.0 °F 36.4 °F 39.7 °F 95% 30.14 in 5.0 mi ENE 6.9 mph - 0.06 in Rain Rain
11:55 AM 41.2 °F 39.2 °F 40.1 °F 96% 30.14 in 5.0 mi ENE 3.5 mph - 0.10 in Rain Rain
12:15 PM 41.4 °F - 40.3 °F 96% 30.14 in 5.0 mi Calm Calm - 0.02 in Rain Rain
12:35 PM 42.1 °F - 41.0 °F 96% 30.13 in 10.0 mi Calm Calm - 0.02 in Rain Light Rain
12:55 PM 42.6 °F 39.9 °F 41.0 °F 94% 30.13 in 10.0 mi East 4.6 mph - 0.02 in   Overcast
1:15 PM 42.8 °F 41.1 °F 41.0 °F 93% 30.12 in 5.0 mi East 3.5 mph - N/A Rain Light Rain
1:35 PM 42.8 °F 39.3 °F 41.7 °F 96% 30.12 in 3.0 mi East 5.8 mph - N/A   Light Drizzle
1:55 PM 43.0 °F 39.5 °F 42.1 °F 97% 30.12 in 2.0 mi ENE 5.8 mph - 0.01 in   Light Drizzle
2:15 PM 43.2 °F 39.0 °F 42.1 °F 96% 30.12 in 3.0 mi ENE 6.9 mph - 0.01 in Rain Light Rain
2:35 PM 43.7 °F 39.1 °F 42.4 °F 95% 30.12 in 3.0 mi East 8.1 mph - 0.03 in Rain Light Rain
2:55 PM 43.7 °F 40.3 °F 42.6 °F 96% 30.12 in 4.0 mi East 5.8 mph - 0.03 in   Light Drizzle
3:15 PM 44.1 °F 39.5 °F 42.3 °F 93% 30.11 in 4.0 mi East 8.1 mph - N/A Rain Light Rain
3:35 PM 44.2 °F 39.7 °F 42.3 °F 93% 30.11 in 3.0 mi East 8.1 mph - N/A   Overcast
3:55 PM 43.9 °F 38.3 °F 41.0 °F 90% 30.11 in 10.0 mi East 10.4 mph - N/A   Overcast
4:35 PM 43.9 °F 39.9 °F 41.2 °F 90% 30.12 in 10.0 mi East 6.9 mph - N/A   Overcast
4:55 PM 44.4 °F 40.5 °F 41.0 °F 88% 30.11 in 10.0 mi ESE 6.9 mph - N/A   Overcast
5:15 PM 44.6 °F 40.7 °F 40.8 °F 87% 30.12 in 10.0 mi East 6.9 mph - N/A   Overcast
5:35 PM 44.1 °F 40.1 °F 40.5 °F 87% 30.12 in 10.0 mi East 6.9 mph - N/A   Overcast
5:55 PM 44.1 °F 40.8 °F 40.3 °F 87% 30.12 in 10.0 mi ESE 5.8 mph - N/A   Overcast
6:15 PM 43.9 °F 41.3 °F 40.5 °F 88% 30.12 in 10.0 mi ESE 4.6 mph - N/A   Overcast
6:35 PM 43.9 °F 40.5 °F 41.0 °F 90% 30.12 in 10.0 mi ESE 5.8 mph - N/A   Overcast
6:55 PM 43.2 °F 40.5 °F 41.4 °F 93% 30.12 in 3.0 mi East 4.6 mph - N/A   Overcast
7:15 PM 43.5 °F 40.9 °F 41.2 °F 91% 30.12 in 10.0 mi ESE 4.6 mph - N/A   Overcast
7:35 PM 43.3 °F 40.7 °F 40.5 °F 90% 30.12 in 10.0 mi East 4.6 mph - N/A   Overcast
7:55 PM 43.2 °F 41.5 °F 41.0 °F 92% 30.12 in 5.0 mi East 3.5 mph - N/A   Overcast
8:15 PM 43.0 °F 41.3 °F 41.2 °F 93% 30.13 in 10.0 mi East 3.5 mph - N/A   Overcast
8:35 PM 43.2 °F - 41.4 °F 93% 30.14 in 10.0 mi Calm Calm - N/A   Overcast
8:55 PM 43.0 °F - 41.4 °F 94% 30.15 in 10.0 mi Calm Calm - N/A   Overcast
9:15 PM 43.0 °F - 41.5 °F 95% 30.16 in 10.0 mi Calm Calm - N/A   Overcast
9:35 PM 42.8 °F - 41.4 °F 95% 30.16 in 10.0 mi Calm Calm - N/A   Overcast
9:55 PM 42.8 °F - 41.7 °F 96% 30.16 in 7.0 mi Calm Calm - N/A   Overcast
10:15 PM 42.8 °F - 41.9 °F 97% 30.15 in 5.0 mi Calm Calm - N/A   Overcast
10:35 PM 42.6 °F - 41.9 °F 97% 30.15 in 7.0 mi Calm Calm - N/A   Overcast
10:55 PM 42.4 °F - 41.9 °F 98% 30.15 in 10.0 mi Calm Calm - N/A   Overcast
11:15 PM 42.4 °F - 41.5 °F 97% 30.14 in 10.0 mi Calm Calm - N/A   Overcast
11:35 PM 42.4 °F - 41.4 °F 96% 30.15 in 10.0 mi Calm Calm - N/A   Overcast
11:55 PM 42.4 °F - 41.2 °F 95% 30.15 in 10.0 mi Calm Calm - N/A   Overcast